Calaveras, Mexico

2:03 AM MST on February 26, 2017 (GMT -0700)
Gen Rafael Buelna International

Weather History for MMMZ - April, 2013

Change the Weather History Date:

Saturday, April 27, 2013

  Actual Average Record
Temperature  
Mean Temperature 72 °F -  
Max Temperature 84 °F 83 °F 89 °F (2001)
Min Temperature 59 °F 57 °F 53 °F (1998)
Cooling Degree Days 6    
Growing Degree Days 22 (Base 50)    
Moisture  
Dew Point 55 °F    
Average Humidity 57    
Maximum Humidity 77    
Minimum Humidity 37    
Precipitation  
Precipitation 0.00 in - - ()
Sea Level Pressure  
Sea Level Pressure 29.89 in    
Wind  
Wind Speed 6 mph ()    
Max Wind Speed 16 mph    
Max Gust Speed -    
Visibility 10.8 miles    
Events      
Averages and records for this station are not official NWS values.
T = Trace of Precipitation, MM = Missing Value Source: Averaged Metar Reports

Daily Weather History Graph

Daily Weather History Graph

Search for Another Location

Airport or City:

Trip Planner

Search our weather history database for the weather conditions in past years. The results will help you decide how hot, cold, wet, or windy it might be!

Date:

Astronomy

Apr. 27, 2013 Rise Set
Actual Time 6:34 AM MDT 7:31 PM MDT
Civil Twilight 6:10 AM MDT 7:54 PM MDT
Nautical Twilight 5:43 AM MDT 8:22 PM MDT
Astronomical Twilight 5:15 AM MDT 8:50 PM MDT
Moon 9:51 PM MDT (4/27) 8:06 AM MDT (4/27)
Length of Visible Light 13h 43m
Length of Day
12h 56m
Waning Gibbous, 95% of the Moon is Illuminated
Apr 27
Waning Gibbous
May 2
Last Quarter
May 9
New
May 17
First Quarter
May 24
Full

Hourly Weather History & Observations

Time (MDT) Temp. Heat Index Dew Point Humidity Pressure Visibility Wind Dir Wind Speed Gust Speed Precip Events Conditions
12:42 AM 62.6 °F - 51.8 °F 68% 29.94 in 8.0 mi Calm Calm - N/A   Scattered Clouds
1:46 AM 62.6 °F - 50.0 °F 63% 29.90 in 8.0 mi NNE 4.6 mph - N/A   Mostly Cloudy
2:43 AM 62.6 °F - 50.0 °F 63% 29.91 in 8.0 mi ENE 8.1 mph - N/A   Mostly Cloudy
3:42 AM 60.8 °F - 48.2 °F 63% 29.91 in 8.0 mi East 6.9 mph - N/A   Mostly Cloudy
4:51 AM 60.8 °F - 48.2 °F 63% 29.90 in 8.0 mi NNW 5.8 mph - N/A   Scattered Clouds
5:45 AM 60.8 °F - 48.2 °F 63% 29.90 in 10.0 mi North 6.9 mph - N/A   Scattered Clouds
6:41 AM 59.0 °F - 46.4 °F 63% 29.91 in 10.0 mi North 6.9 mph - N/A   Scattered Clouds
7:45 AM 62.6 °F - 50.0 °F 63% 29.93 in 10.0 mi NNE 8.1 mph - N/A   Mostly Cloudy
8:47 AM 69.8 °F - 53.6 °F 56% 29.94 in 12.0 mi East 5.8 mph - N/A   Mostly Cloudy
9:00 AM 74 °F - 65 °F 66% 29.95 in - ESE 6.7 mph - -  
9:42 AM 75.2 °F - 59.0 °F 57% 29.94 in 12.0 mi East 8.1 mph - N/A   Mostly Cloudy
10:40 AM 80.6 °F 81.5 °F 60.8 °F 51% 29.94 in 12.0 mi SSE 9.2 mph - N/A   Scattered Clouds
11:41 AM 82.4 °F 83.4 °F 62.6 °F 51% 29.93 in 12.0 mi SE 8.1 mph - N/A   Partly Cloudy
12:00 PM 82 °F - 67 °F 50% 29.95 in - South 6.7 mph - -  
12:45 PM 82.4 °F 82.5 °F 59.0 °F 45% 29.91 in 12.0 mi SSW 9.2 mph - N/A   Clear
1:44 PM 84.2 °F 83.8 °F 59.0 °F 42% 29.89 in 12.0 mi South 6.9 mph - N/A   Clear
2:45 PM 84.2 °F 83.0 °F 55.4 °F 37% 29.86 in 12.0 mi SW 11.5 mph - N/A   Clear
3:43 PM 80.6 °F 81.1 °F 59.0 °F 48% 29.84 in 12.0 mi SW 16.1 mph - N/A   Clear
4:42 PM 82.4 °F 82.0 °F 57.2 °F 42% 29.82 in 14.0 mi WSW 16.1 mph - N/A   Clear
5:44 PM 80.6 °F 80.5 °F 55.4 °F 42% 29.81 in 14.0 mi SW 12.7 mph - N/A   Clear
6:42 PM 78.8 °F - 55.4 °F 44% 29.82 in 14.0 mi WSW 11.5 mph - N/A   Clear
7:44 PM 73.4 °F - 55.4 °F 53% 29.82 in 12.0 mi SW 9.2 mph - N/A   Clear
8:40 PM 69.8 °F - 55.4 °F 60% 29.84 in 10.0 mi SW 9.2 mph - N/A   Clear
9:00 PM 75 °F - 64 °F 61% 29.84 in - West 6.7 mph - -  
9:44 PM 66.2 °F - 53.6 °F 64% 29.85 in 10.0 mi Calm Calm - N/A   Clear
10:43 PM 62.6 °F - 53.6 °F 72% 29.86 in 10.0 mi ESE 8.1 mph - N/A   Clear
11:46 PM 60.8 °F - 53.6 °F 77% 29.88 in 10.0 mi Calm Calm - N/A   Clear